Weather in Corrientes

Argentina     27°29′10″S   58°47′30″W
temp.,
°C
wind,
m/s
gust,
m/s
humid.,
%
clouds,
%
prec.,
mm/h
press.,
hPa
HPBL,
m
10 april, sat
sat1000:00+25ne38718 0.0 1010183
03:00+25ne312689 0.0 1010308
06:00+23nne413730 0.0 1009327
09:00+26nne512650 0.0 1011383
12:00+32n610474 0.0 10091122
15:00+33n69435 0.0 10072034
18:00+31ne37562 0.0 1005260
21:00+27ene376322 0.0 1007128
11 april, sun
sun1100:00+25wnw117633 0.4 100817
03:00+23sw379312 2.6 1009232
06:00+20ssw51197100 2.9 1012403
09:00+19ssw51194100 5.1 1015566
12:00+19ssw5882100 1.5 1017691
15:00+22s565798 2.1 1016960
18:00+20s2563100 0.0 1016345
21:00+19s25695 0.0 1017159
12 april, mon
mon1200:00+17s287329 0.0 1018220
03:00+16sse28775 0.0 1018233
06:00+15se3108011 0.0 1019369
09:00+17ese497178 0.0 1020490
12:00+22ese455314 0.0 1020984
15:00+24se3347100 0.0 10181196
18:00+22sse246291 0.0 1017236
21:00+19se257069 0.0 1019129
13 april, tue
tue1300:00+17se287222 0.0 1019199
03:00+17sse277619 0.0 1019179
06:00+16sse278157 0.0 1019202
09:00+19ese356892 0.0 1021291
12:00+24ese2349100 0.0 1020876
15:00+26se3345100 0.1 10181126
18:00+23se246020 0.0 1017238
21:00+19se26735 0.0 1018133
14 april, wed
wed1400:00+18ese26766 0.0 1017125
03:00+17ese1279100 0.0 101637
06:00+17ese22815 0.0 101538
09:00+20ese23682 0.0 1016224
12:00+26e334862 0.0 1015766
15:00+29ene22455 0.0 10121164
18:00+26ese23610 0.0 101280
21:00+21ese23751 0.0 101361